Find Tongxin Jishu Shiyan 19

NORAD ID: 63924 Int'l Des: 2025-097 Owner: SAST Country: CN operational
HEOCIRCULARGSO

リアルタイム位置

3D地球を読み込み中...

Tongxin Jishu Shiyan 19について

説明を読み込み中...

次回通過

Passes for default location (London). Set your location on the main map for personalized predictions.

高度履歴

Loading altitude history...

軌道要素

1 63924U 25097A 26105.77058700 -.00000277 00000-0 00000+0 0 9991
2 63924 3.3942 316.4358 0001462 338.1702 327.9561 1.00268566 3510
Epoch: Apr 15, 2026 • Age: 11 hours

現在のステータス

高度 35791.4 km
速度 3.07 km/s
衛星直下点 2.98°N, 141.27°E
打ち上げ日 May 12, 2025
運用期間 0.9 years
タイプ other

技術仕様

分類 Payload
質量 3000.00 kg
乾燥質量 2500.00 kg
総質量 3000.00 kg
長さ 5.00 m
直径 2.50 m
スパン 30.00 m
形状 Box + 2 Pan
製造者 SAST
バスタイプ FY-4
フェーズステータス In Orbit
所有者/国 SAST/CN

Most Searched